Lid_Strength_Index
3 3 4 7 12 14 16 15 13 13 13 12 11 11 12 12 11 13 7 7 6 5 3 0 -2 -2 -2 -2 -2 -2 -1 -1 -1 -1 -1 -1 -1 -1 -1 -1 -1 -1 -1 -1 -1 -1 -2 -2 -2
4 4 6 10 14 16 16 14 14 13 11 12 11 12 12 13 10 9 9 7 7 6 5 0 -2 -2 -2 -1 -1 -1 -2 -2 -2 -2 -2 -2 -1 -1 -1 -1 -1 -1 -1 -2 -2 -2 -2 -2 -2
4 5 8 13 16 16 16 14 13 13 12 12 12 11 13 12 11 10 9 8 8 8 7 2 -1 -0 -1 -1 0 0 -0 -1 -2 -2 -2 -2 -2 -2 -2 -1 -1 -1 -2 -2 -2 -2 -2 -2 -1
7 8 11 14 15 14 13 14 13 12 13 11 12 13 12 11 11 10 9 9 10 10 8 4 2 1 1 1 0 0 -1 -1 -1 -1 -1 -1 -2 -2 -2 -2 -1 -1 -1 -2 -2 -2 -2 -2 -1
9 11 14 16 15 13 13 13 12 12 13 13 13 14 13 11 11 11 12 11 11 11 9 8 4 3 3 2 2 2 1 1 -0 0 -1 -2 -1 -1 -1 -2 -2 -2 -2 -2 -2 -2 -2 -1 -1
10 12 15 16 16 13 13 13 12 13 13 12 13 14 13 12 12 12 12 13 12 12 10 9 6 5 4 4 4 3 3 2 2 2 1 1 1 -0 -1 -0 -0 -2 -2 -2 -2 -2 -2 -1 -1
12 13 16 17 16 14 13 12 13 13 13 13 12 15 14 13 12 12 13 13 12 12 11 11 11 8 7 6 5 5 5 4 4 4 4 3 2 1 3 3 1 1 1 0 -1 -1 -2 -2 -1
12 13 16 16 15 14 12 13 13 13 13 13 13 15 16 14 12 13 14 14 13 12 12 12 12 11 11 10 7 7 6 6 6 6 6 6 4 4 5 5 3 2 2 2 1 0 -1 -1 -1
11 13 15 15 15 14 12 13 14 14 14 15 14 14 13 13 13 14 16 15 14 13 13 13 13 13 12 11 10 9 8 8 7 7 6 7 7 7 8 6 5 4 3 3 1 1 2 -0 -1
13 14 14 13 14 14 13 13 13 14 15 16 16 15 14 14 15 15 16 16 16 16 14 14 14 14 13 11 13 13 12 12 11 10 9 8 8 8 8 8 7 5 5 4 2 4 5 6 5
13 15 13 12 12 12 12 14 13 14 15 15 16 15 15 15 16 16 16 16 16 17 15 15 14 14 14 14 13 14 13 13 12 12 10 9 9 10 10 10 10 8 7 6 6 6 6 6 6
13 13 12 11 11 12 13 13 14 14 13 14 14 14 16 16 16 16 17 17 17 16 16 15 15 15 15 14 14 14 14 13 13 13 11 11 11 11 11 11 11 9 8 8 7 7 7 7 6
13 13 11 11 11 12 12 12 13 14 15 15 15 15 16 16 16 16 16 16 17 16 16 16 15 15 15 15 15 15 15 14 14 13 12 11 12 12 12 12 12 10 9 9 9 8 8 8 7
13 12 12 11 11 12 12 14 14 14 16 16 16 16 17 17 17 17 17 17 17 16 16 16 15 15 15 15 15 15 15 14 14 14 13 12 12 13 13 13 12 12 10 9 9 8 8 8 8
12 13 13 13 12 12 13 14 14 15 16 16 17 17 17 17 17 17 17 17 17 17 17 16 15 15 15 15 15 15 15 14 14 14 13 13 13 13 14 14 13 12 11 10 9 9 8 9 8
14 14 15 14 13 13 14 15 13 15 16 17 17 18 17 17 17 17 17 17 18 17 17 16 14 15 15 16 15 15 15 15 15 15 15 14 14 14 15 15 14 12 13 13 11 9 9 9 8
15 16 17 14 13 14 14 15 13 15 16 16 17 18 17 18 18 18 18 18 18 17 17 16 16 16 16 16 16 16 16 16 16 16 16 15 15 14 15 15 14 14 14 13 12 11 10 9 8
16 17 17 17 15 15 16 15 12 15 16 15 16 17 18 18 18 18 18 18 18 18 17 17 16 16 16 16 16 17 17 17 17 17 16 15 15 15 15 15 15 14 15 15 14 14 12 10 8
15 17 17 16 14 15 15 15 13 12 16 16 16 17 17 17 18 18 18 18 18 18 18 17 17 17 17 17 18 18 19 18 18 17 16 16 16 15 16 16 16 15 15 15 14 14 13 12 9
16 17 17 16 16 16 16 16 14 13 14 15 15 16 17 17 19 18 18 19 19 18 18 18 17 17 17 17 18 18 19 18 18 17 17 17 16 16 16 16 16 16 16 15 15 13 12 11 9
17 17 18 17 17 17 18 18 18 15 15 14 14 14 16 17 18 18 19 19 19 19 19 18 17 17 17 18 18 18 18 19 19 19 19 18 17 16 16 16 16 16 15 16 14 16 15 15 12
17 16 17 17 19 20 17 20 19 16 16 16 15 16 16 17 18 18 18 20 20 19 18 18 18 18 17 18 18 20 20 21 20 20 19 18 17 17 17 16 17 16 15 16 16 15 15 15 15
16 16 18 18 19 21 21 22 20 20 18 14 15 15 16 17 18 18 18 18 19 18 19 19 19 19 18 18 19 20 20 20 20 20 20 19 18 17 17 17 17 16 16 16 17 16 16 14 14
15 17 18 20 21 23 20 20 22 20 18 16 16 17 17 18 18 18 18 19 18 19 19 19 19 19 18 19 19 20 21 21 21 21 21 20 19 18 17 17 17 17 17 17 17 16 15 15 15
16 17 20 22 23 21 22 23 19 17 17 16 16 17 18 19 19 19 19 19 19 19 19 19 19 20 19 20 20 21 21 22 22 21 21 20 20 19 19 18 17 17 17 16 16 16 17 17 16
17 16 19 24 24 21 23 23 19 17 16 18 19 18 18 20 19 19 19 18 19 19 20 19 20 20 20 20 21 21 21 21 21 21 21 21 20 20 18 18 17 17 17 17 16 17 16 15 16
18 19 17 20 29 26 20 20 18 17 18 18 19 18 19 21 20 19 19 19 20 20 20 20 20 20 21 21 21 22 22 22 22 22 21 21 20 19 18 18 18 18 17 17 17 17 17 17 17
18 16 19 20 24 28 22 21 19 16 17 16 19 20 20 21 20 19 19 19 20 20 20 20 21 21 21 22 22 22 23 22 22 22 22 21 20 19 19 19 18 18 17 17 17 17 17 17 16
20 19 20 19 20 23 26 20 18 16 15 15 17 19 20 20 20 19 19 19 19 20 20 21 21 22 22 22 23 23 23 22 22 22 22 21 20 20 19 19 18 18 18 17 17 17 17 17 16
17 17 17 19 20 22 21 19 17 16 15 16 17 18 20 20 20 19 19 20 20 20 21 22 22 23 23 23 23 23 23 23 23 23 22 21 21 20 20 19 19 19 19 18 18 18 17 16 17